N3898R KMLB-

Flight info

Callsign N3898R
Flight time N/A
Altitude VFR
Route
Aircraft C172/L-VGD/C

Departure

Time 2026-04-28 19:03
Airport Melbourne Orlando International Airport (KMLB)

Arrival

Time N/A
Airport -
Time Latitude Longitude Altitude Speed Heading
2026-04-28 18:59 28.10695 -80.65282 30 ft 0 kts 174°
2026-04-28 19:00 28.10679 -80.65282 30 ft 7 kts 194°
2026-04-28 19:00 28.10660 -80.65384 30 ft 21 kts 267°
2026-04-28 19:00 28.10652 -80.65580 30 ft 33 kts 268°
2026-04-28 19:01 28.10637 -80.65849 28 ft 40 kts 267°
2026-04-28 19:01 28.10615 -80.65984 27 ft 0 kts 171°
2026-04-28 19:01 28.10613 -80.65984 27 ft 1 kts 179°
2026-04-28 19:02 28.10611 -80.65984 27 ft 3 kts 178°
2026-04-28 19:02 28.10560 -80.65972 27 ft 15 kts 150°
2026-04-28 19:02 28.10548 -80.65816 27 ft 45 kts 89°
2026-04-28 19:02 28.10573 -80.65396 115 ft 64 kts 84°
2026-04-28 19:03 28.10600 -80.64938 284 ft 66 kts 84°
2026-04-28 19:03 28.10630 -80.64488 434 ft 69 kts 83°
2026-04-28 19:03 28.10660 -80.64030 577 ft 73 kts 86°
2026-04-28 19:03 28.10669 -80.63509 711 ft 77 kts 86°
2026-04-28 19:04 28.10679 -80.62961 841 ft 81 kts 85°
2026-04-28 19:04 28.10637 -80.62372 1010 ft 83 kts 102°
2026-04-28 19:04 28.10395 -80.61876 1060 ft 95 kts 124°
2026-04-28 19:04 28.10003 -80.61414 1188 ft 98 kts 135°
2026-04-28 19:05 28.09422 -80.60946 1197 ft 105 kts 141°
2026-04-28 19:05 28.08748 -80.60510 1191 ft 110 kts 152°
2026-04-28 19:05 28.08369 -80.60334 1191 ft 111 kts 153°
2026-04-28 19:05 28.07904 -80.60123 1190 ft 112 kts 153°
2026-04-28 19:06 28.07189 -80.59757 1190 ft 112 kts 146°
2026-04-28 19:06 28.06737 -80.59465 1190 ft 112 kts 145°
2026-04-28 19:06 28.06012 -80.58987 1189 ft 113 kts 145°
2026-04-28 19:06 28.05614 -80.58737 1189 ft 113 kts 146°
2026-04-28 19:07 28.05102 -80.58423 1189 ft 113 kts 147°
2026-04-28 19:07 28.04403 -80.58028 1189 ft 114 kts 149°
2026-04-28 19:07 28.03845 -80.57724 1189 ft 114 kts 149°
2026-04-28 19:07 28.03288 -80.57413 1189 ft 114 kts 148°
2026-04-28 19:08 28.02592 -80.57020 1189 ft 114 kts 149°
2026-04-28 19:08 28.01896 -80.56639 1189 ft 114 kts 149°
2026-04-28 19:08 28.01391 -80.56364 1189 ft 114 kts 149°
2026-04-28 19:08 28.00817 -80.56052 1189 ft 114 kts 149°
2026-04-28 19:09 28.00139 -80.55682 1189 ft 114 kts 149°
2026-04-28 19:09 27.99613 -80.55396 1189 ft 114 kts 149°
2026-04-28 19:09 27.99092 -80.55112 1189 ft 114 kts 149°
2026-04-28 19:09 27.98428 -80.54750 1189 ft 114 kts 149°
2026-04-28 19:10 27.97828 -80.54707 1109 ft 113 kts 200°
2026-04-28 19:10 27.97370 -80.55094 978 ft 107 kts 228°
2026-04-28 19:10 27.97002 -80.55628 860 ft 112 kts 241°
2026-04-28 19:10 27.96908 -80.56279 861 ft 105 kts 275°
2026-04-28 19:11 27.96920 -80.56892 818 ft 99 kts 273°
2026-04-28 19:11 27.96872 -80.57413 699 ft 92 kts 245°
2026-04-28 19:11 27.96493 -80.57712 506 ft 87 kts 178°
2026-04-28 19:11 27.96021 -80.57690 375 ft 72 kts 142°
2026-04-28 19:12 27.95949 -80.57291 196 ft 61 kts 78°
2026-04-28 19:12 27.95969 -80.56892 108 ft 53 kts 87°
2026-04-28 19:12 27.95963 -80.56516 20 ft 43 kts 87°
2026-04-28 19:12 27.95961 -80.56165 21 ft 60 kts 89°
2026-04-28 19:13 27.95947 -80.55624 160 ft 69 kts 88°
2026-04-28 19:13 27.95953 -80.55067 392 ft 66 kts 85°
2026-04-28 19:13 27.95986 -80.54496 597 ft 67 kts 81°
2026-04-28 19:13 27.96308 -80.54110 824 ft 66 kts 17°
2026-04-28 19:14 27.96755 -80.54160 965 ft 74 kts 349°
2026-04-28 19:14 27.97109 -80.54534 955 ft 95 kts 291°
2026-04-28 19:14 27.97078 -80.55132 862 ft 105 kts 263°
2026-04-28 19:14 27.96971 -80.55862 848 ft 107 kts 262°
2026-04-28 19:15 27.96887 -80.56568 868 ft 104 kts 269°
2026-04-28 19:15 27.96852 -80.57340 775 ft 92 kts 269°
2026-04-28 19:15 27.96657 -80.57857 623 ft 87 kts 214°
2026-04-28 19:15 27.96341 -80.57970 533 ft 80 kts 174°
2026-04-28 19:16 27.95932 -80.57703 340 ft 67 kts 85°
2026-04-28 19:16 27.95969 -80.57327 231 ft 66 kts 85°
2026-04-28 19:16 27.95960 -80.56964 146 ft 59 kts 86°
2026-04-28 19:16 27.95965 -80.56639 52 ft 51 kts 86°
2026-04-28 19:17 27.95968 -80.56364 20 ft 40 kts 88°
2026-04-28 19:17 27.95960 -80.55987 93 ft 61 kts 87°
2026-04-28 19:17 27.95957 -80.55647 220 ft 63 kts 86°
2026-04-28 19:17 27.95972 -80.55302 343 ft 65 kts 82°
2026-04-28 19:18 27.96207 -80.54843 529 ft 68 kts 32°
2026-04-28 19:18 27.96714 -80.54821 697 ft 77 kts 347°
2026-04-28 19:18 27.97092 -80.55169 902 ft 79 kts 311°
2026-04-28 19:18 27.97360 -80.55623 1055 ft 81 kts 308°
2026-04-28 19:19 27.97643 -80.56120 1125 ft 91 kts 308°
2026-04-28 19:19 27.97880 -80.56528 1138 ft 100 kts 308°
2026-04-28 19:19 27.98046 -80.56809 1144 ft 105 kts 308°
2026-04-28 19:19 27.98221 -80.57103 1149 ft 109 kts 308°
2026-04-28 19:20 27.98555 -80.57720 1155 ft 117 kts 298°
2026-04-28 19:20 27.98786 -80.58413 1162 ft 122 kts 292°
2026-04-28 19:20 27.99017 -80.59186 1165 ft 125 kts 291°
2026-04-28 19:20 27.99183 -80.59760 1166 ft 126 kts 291°
2026-04-28 19:21 27.99347 -80.60323 1167 ft 127 kts 291°
2026-04-28 19:21 27.99501 -80.60855 1168 ft 128 kts 291°
2026-04-28 19:21 27.99647 -80.61356 1168 ft 128 kts 291°
2026-04-28 19:21 27.99851 -80.62060 1169 ft 129 kts 291°
2026-04-28 19:22 28.00026 -80.62664 1169 ft 129 kts 291°
2026-04-28 19:22 28.00183 -80.63206 1169 ft 129 kts 291°
2026-04-28 19:22 28.00578 -80.64567 1169 ft 129 kts 291°
2026-04-28 19:22 28.00853 -80.65518 1163 ft 122 kts 291°
2026-04-28 19:23 28.01077 -80.66312 1160 ft 117 kts 290°
2026-04-28 19:23 28.01325 -80.67156 1150 ft 114 kts 297°
2026-04-28 19:23 28.01686 -80.67879 1147 ft 111 kts 305°
2026-04-28 19:23 28.01936 -80.68600 1184 ft 111 kts 261°
2026-04-28 19:24 28.01446 -80.68944 1140 ft 107 kts 154°
2026-04-28 19:24 28.01286 -80.68374 1109 ft 97 kts 59°
2026-04-28 19:24 28.01801 -80.68128 1065 ft 105 kts 354°
2026-04-28 19:24 28.02525 -80.68230 1136 ft 102 kts 358°
2026-04-28 19:25 28.03220 -80.68292 1205 ft 100 kts 359°
2026-04-28 19:25 28.03740 -80.68343 1239 ft 100 kts 359°
2026-04-28 19:25 28.04212 -80.68381 1278 ft 100 kts
2026-04-28 19:25 28.04766 -80.68411 1322 ft 99 kts
2026-04-28 19:26 28.05413 -80.68420 1364 ft 99 kts
2026-04-28 19:26 28.06107 -80.68392 1415 ft 99 kts
2026-04-28 19:26 28.06700 -80.68333 1391 ft 103 kts
2026-04-28 19:26 28.07251 -80.68282 1308 ft 102 kts
2026-04-28 19:27 28.07634 -80.68244 1225 ft 103 kts
2026-04-28 19:27 28.08244 -80.68110 1110 ft 102 kts 20°
2026-04-28 19:27 28.08802 -80.67957 1001 ft 103 kts 13°
2026-04-28 19:27 28.09296 -80.67871 975 ft 99 kts 12°
2026-04-28 19:28 28.09915 -80.67762 833 ft 94 kts 14°
2026-04-28 19:28 28.10445 -80.67635 732 ft 78 kts 21°
2026-04-28 19:28 28.10534 -80.67243 632 ft 66 kts 97°
2026-04-28 19:28 28.10491 -80.66777 404 ft 62 kts 84°
2026-04-28 19:29 28.10518 -80.66306 232 ft 55 kts 82°
2026-04-28 19:29 28.10535 -80.66023 133 ft 53 kts 83°
2026-04-28 19:29 28.10563 -80.65521 30 ft 35 kts 84°
2026-04-28 19:29 28.10580 -80.65311 30 ft 14 kts 59°
2026-04-28 19:30 28.10647 -80.65276 30 ft 8 kts 17°
2026-04-28 19:30 28.10699 -80.65274 30 ft 6 kts
2026-04-28 19:30 28.10711 -80.65205 29 ft 17 kts 83°
2026-04-28 19:30 28.10781 -80.65185 28 ft 16 kts 354°
2026-04-28 19:31 28.10867 -80.65188 29 ft 3 kts 12°
2026-04-28 19:31 28.10869 -80.65188 29 ft 0 kts 358°